Grub im Wienerwald
Wetterdaten: aktuell Mittwoch, 29.01.2020 06:27
Datum Zeit Temp. A. Feuchte A. Luftdruck Regen Wind Richtung Richtung Sonnenschein UV Solar Taupunkt Windchill Windben
29.01.2020 06:27 -1,2 C 88 % 1005,7 hPa 0,0 l/m 0,1 km/h N-NW 346 0 min 0,0 UV-I 0 W/m -2,9 C -1,2 C 1,6 km/h
29.01.2020 06:24 -1,2 C 88 % 1005,6 hPa 0,0 l/m 0,0 km/h N-NW 346 0 min 0,0 UV-I 0 W/m -2,9 C -1,2 C 0,0 km/h
29.01.2020 06:21 -1,2 C 88 % 1005,6 hPa 0,0 l/m 0,0 km/h N-NW 346 0 min 0,0 UV-I 0 W/m -2,9 C -1,2 C 0,0 km/h
29.01.2020 06:18 -1,2 C 88 % 1005,6 hPa 0,0 l/m 0,0 km/h N-NW 346 0 min 0,0 UV-I 0 W/m -2,9 C -1,2 C 0,0 km/h
29.01.2020 06:15 -1,2 C 88 % 1005,6 hPa 0,0 l/m 0,0 km/h N-NW 346 0 min 0,0 UV-I 0 W/m -2,9 C -1,2 C 0,0 km/h
29.01.2020 06:12 -1,2 C 87 % 1005,6 hPa 0,0 l/m 0,3 km/h N-NW 346 0 min 0,0 UV-I 0 W/m -3,1 C -1,2 C 1,6 km/h
29.01.2020 06:09 -1,2 C 87 % 1005,6 hPa 0,0 l/m 1,0 km/h N-NW 346 0 min 0,0 UV-I 0 W/m -3,1 C -1,2 C 3,2 km/h
29.01.2020 06:06 -1,2 C 87 % 1005,6 hPa 0,0 l/m 0,7 km/h N-NW 346 0 min 0,0 UV-I 0 W/m -3,1 C -1,2 C 4,8 km/h
29.01.2020 06:03 -1,2 C 87 % 1005,5 hPa 0,0 l/m 0,1 km/h N-NW 346 0 min 0,0 UV-I 0 W/m -3,1 C -1,2 C 1,6 km/h
29.01.2020 06:00 -1,1 C 87 % 1005,6 hPa 0,0 l/m 1,3 km/h N-NW 346 0 min 0,0 UV-I 0 W/m -3,0 C -1,1 C 4,8 km/h
29.01.2020 05:57 -1,1 C 86 % 1005,5 hPa 0,0 l/m 0,0 km/h N-NW 346 0 min 0,0 UV-I 0 W/m -3,1 C -1,1 C 0,0 km/h
29.01.2020 05:54 -1,1 C 86 % 1005,5 hPa 0,0 l/m 0,4 km/h N-NW 346 0 min 0,0 UV-I 0 W/m -3,1 C -1,1 C 3,2 km/h
29.01.2020 05:51 -1,1 C 86 % 1005,5 hPa 0,0 l/m 0,0 km/h N-NW 346 0 min 0,0 UV-I 0 W/m -3,1 C -1,1 C 0,0 km/h
29.01.2020 05:48 -0,9 C 85 % 1005,6 hPa 0,0 l/m 0,0 km/h N-NW 346 0 min 0,0 UV-I 0 W/m -3,1 C -0,9 C 0,0 km/h
29.01.2020 05:45 -0,9 C 85 % 1005,4 hPa 0,0 l/m 0,0 km/h N-NW 346 0 min 0,0 UV-I 0 W/m -3,1 C -0,9 C 0,0 km/h
29.01.2020 05:42 -0,8 C 85 % 1005,4 hPa 0,0 l/m 0,0 km/h N-NW 346 0 min 0,0 UV-I 0 W/m -3,0 C -0,8 C 0,0 km/h
29.01.2020 05:39 -0,8 C 84 % 1005,3 hPa 0,0 l/m 0,0 km/h N-NW 346 0 min 0,0 UV-I 0 W/m -3,2 C -0,8 C 0,0 km/h
29.01.2020 05:36 -0,7 C 84 % 1005,2 hPa 0,0 l/m 0,0 km/h N-NW 346 0 min 0,0 UV-I 0 W/m -3,1 C -0,7 C 0,0 km/h
29.01.2020 05:33 -0,7 C 84 % 1005,2 hPa 0,0 l/m 0,0 km/h N-NW 346 0 min 0,0 UV-I 0 W/m -3,1 C -0,7 C 0,0 km/h
29.01.2020 05:30 -0,7 C 84 % 1005,3 hPa 0,0 l/m 0,0 km/h N-NW 346 0 min 0,0 UV-I 0 W/m -3,1 C -0,7 C 0,0 km/h
29.01.2020 05:27 -0,6 C 83 % 1005,3 hPa 0,0 l/m 0,2 km/h N-NW 346 0 min 0,0 UV-I 0 W/m -3,1 C -0,6 C 1,6 km/h
29.01.2020 05:24 -0,5 C 83 % 1005,4 hPa 0,0 l/m 0,0 km/h N-NW 346 0 min 0,0 UV-I 0 W/m -3,0 C -0,5 C 0,0 km/h
29.01.2020 05:21 -0,4 C 83 % 1005,5 hPa 0,0 l/m 0,0 km/h N-NW 346 0 min 0,0 UV-I 0 W/m -2,9 C -0,4 C 0,0 km/h
29.01.2020 05:18 -0,3 C 82 % 1005,6 hPa 0,0 l/m 0,0 km/h N-NW 346 0 min 0,0 UV-I 0 W/m -3,0 C -0,3 C 0,0 km/h
29.01.2020 05:15 -0,2 C 82 % 1005,6 hPa 0,0 l/m 1,1 km/h N-NW 346 0 min 0,0 UV-I 0 W/m -2,9 C -0,2 C 4,8 km/h
29.01.2020 05:12 -0,2 C 82 % 1005,6 hPa 0,0 l/m 0,1 km/h N-NW 346 0 min 0,0 UV-I 0 W/m -2,9 C -0,2 C 1,6 km/h
29.01.2020 05:09 -0,1 C 81 % 1005,7 hPa 0,0 l/m 0,0 km/h N-NW 346 0 min 0,0 UV-I 0 W/m -3,0 C -0,1 C 0,0 km/h
29.01.2020 05:06 0,0 C 81 % 1005,7 hPa 0,0 l/m 0,0 km/h N-NW 346 0 min 0,0 UV-I 0 W/m -2,9 C 0,0 C 0,0 km/h
29.01.2020 05:03 0,1 C 81 % 1005,9 hPa 0,0 l/m 0,0 km/h N-NW 346 0 min 0,0 UV-I 0 W/m -2,8 C 0,1 C 0,0 km/h
29.01.2020 05:00 0,2 C 80 % 1005,9 hPa 0,0 l/m 0,0 km/h N-NW 346 0 min 0,0 UV-I 0 W/m -2,8 C 0,2 C 0,0 km/h
29.01.2020 04:57 0,3 C 80 % 1005,9 hPa 0,0 l/m 0,0 km/h N-NW 346 0 min 0,0 UV-I 0 W/m -2,7 C 0,3 C 1,6 km/h
29.01.2020 04:54 0,5 C 80 % 1005,9 hPa 0,0 l/m 0,0 km/h N-NW 346 0 min 0,0 UV-I 0 W/m -2,5 C 0,5 C 0,0 km/h
29.01.2020 04:51 0,6 C 79 % 1006,0 hPa 0,0 l/m 0,0 km/h N-NW 346 0 min 0,0 UV-I 0 W/m -2,6 C 0,6 C 0,0 km/h
29.01.2020 04:48 0,7 C 79 % 1006,0 hPa 0,0 l/m 0,0 km/h N-NW 346 0 min 0,0 UV-I 0 W/m -2,5 C 0,7 C 0,0 km/h
29.01.2020 04:45 0,8 C 78 % 1006,0 hPa 0,0 l/m 0,0 km/h N-NW 346 0 min 0,0 UV-I 0 W/m -2,6 C 0,8 C 0,0 km/h
29.01.2020 04:42 0,9 C 78 % 1006,1 hPa 0,0 l/m 0,0 km/h N-NW 346 0 min 0,0 UV-I 0 W/m -2,5 C 0,9 C 0,0 km/h
29.01.2020 04:39 1,1 C 78 % 1006,0 hPa 0,0 l/m 0,0 km/h N-NW 346 0 min 0,0 UV-I 0 W/m -2,3 C 1,1 C 0,0 km/h
29.01.2020 04:36 1,2 C 77 % 1006,1 hPa 0,0 l/m 0,5 km/h N-NW 346 0 min 0,0 UV-I 0 W/m -2,4 C 1,2 C 3,2 km/h
29.01.2020 04:33 1,3 C 76 % 1006,0 hPa 0,0 l/m 0,1 km/h N-NW 346 0 min 0,0 UV-I 0 W/m -2,5 C 1,3 C 1,6 km/h
29.01.2020 04:30 1,4 C 76 % 1006,0 hPa 0,0 l/m 1,0 km/h N-NW 346 0 min 0,0 UV-I 0 W/m -2,4 C 1,4 C 3,2 km/h
29.01.2020 04:27 1,6 C 76 % 1006,0 hPa 0,0 l/m 1,6 km/h N-NW 346 0 min 0,0 UV-I 0 W/m -2,2 C 1,6 C 3,2 km/h
29.01.2020 04:24 1,6 C 76 % 1005,8 hPa 0,0 l/m 0,3 km/h N-NW 346 0 min 0,0 UV-I 0 W/m -2,2 C 1,6 C 3,2 km/h
29.01.2020 04:21 1,7 C 75 % 1005,8 hPa 0,0 l/m 0,8 km/h N-NW 346 0 min 0,0 UV-I 0 W/m -2,2 C 1,7 C 4,8 km/h
29.01.2020 04:18 1,7 C 75 % 1005,8 hPa 0,0 l/m 1,8 km/h N-NW 346 0 min 0,0 UV-I 0 W/m -2,2 C 1,7 C 4,8 km/h
29.01.2020 04:15 1,7 C 75 % 1005,8 hPa 0,0 l/m 0,2 km/h N-NW 346 0 min 0,0 UV-I 0 W/m -2,2 C 1,7 C 1,6 km/h
29.01.2020 04:12 1,8 C 75 % 1005,8 hPa 0,0 l/m 0,3 km/h N-NW 346 0 min 0,0 UV-I 0 W/m -2,1 C 1,8 C 1,6 km/h
29.01.2020 04:09 1,8 C 75 % 1005,8 hPa 0,0 l/m 0,2 km/h N-NW 346 0 min 0,0 UV-I 0 W/m -2,1 C 1,8 C 3,2 km/h
29.01.2020 04:06 1,9 C 74 % 1005,8 hPa 0,0 l/m 4,9 km/h N-NW 346 0 min 0,0 UV-I 0 W/m -2,2 C 1,9 C 9,7 km/h
29.01.2020 04:03 1,9 C 74 % 1005,8 hPa 0,0 l/m 4,9 km/h NW 323 0 min 0,0 UV-I 0 W/m -2,2 C 1,9 C 9,7 km/h
29.01.2020 04:00 1,9 C 74 % 1005,8 hPa 0,0 l/m 1,4 km/h NW 324 0 min 0,0 UV-I 0 W/m -2,2 C 1,9 C 1,6 km/h
29.01.2020 03:57 1,9 C 74 % 1005,7 hPa 0,0 l/m 5,4 km/h NW 313 0 min 0,0 UV-I 0 W/m -2,2 C 1,9 C 11,3 km/h
29.01.2020 03:54 2,0 C 74 % 1005,8 hPa 0,0 l/m 2,0 km/h NW 309 0 min 0,0 UV-I 0 W/m -2,1 C 2,0 C 6,4 km/h
29.01.2020 03:51 2,0 C 74 % 1005,8 hPa 0,0 l/m 3,1 km/h NW 311 0 min 0,0 UV-I 0 W/m -2,1 C 2,0 C 8,0 km/h
29.01.2020 03:48 2,0 C 74 % 1005,9 hPa 0,0 l/m 10,9 km/h NW 314 0 min 0,0 UV-I 0 W/m -2,1 C -1,9 C 24,1 km/h
29.01.2020 03:45 2,0 C 74 % 1005,8 hPa 0,0 l/m 9,8 km/h W-NW 285 0 min 0,0 UV-I 0 W/m -2,1 C -1,1 C 20,9 km/h
29.01.2020 03:42 2,0 C 75 % 1005,9 hPa 0,0 l/m 8,6 km/h NW 323 0 min 0,0 UV-I 0 W/m -2,0 C -0,1 C 17,7 km/h
29.01.2020 03:39 2,0 C 75 % 1005,9 hPa 0,0 l/m 8,7 km/h W-NW 298 0 min 0,0 UV-I 0 W/m -2,0 C -0,2 C 22,5 km/h
29.01.2020 03:36 2,0 C 75 % 1005,8 hPa 0,0 l/m 8,2 km/h NW 317 0 min 0,0 UV-I 0 W/m -2,0 C 0,3 C 16,1 km/h
29.01.2020 03:33 1,9 C 76 % 1005,9 hPa 0,0 l/m 7,0 km/h W-NW 284 0 min 0,0 UV-I 0 W/m -1,9 C 1,3 C 17,7 km/h
29.01.2020 03:30 1,9 C 77 % 1005,9 hPa 0,0 l/m 11,9 km/h W-NW 296 0 min 0,0 UV-I 0 W/m -1,7 C -2,7 C 25,7 km/h
29.01.2020 03:27 1,8 C 78 % 1006,0 hPa 0,0 l/m 13,1 km/h W-NW 292 0 min 0,0 UV-I 0 W/m -1,6 C -3,7 C 29,0 km/h
29.01.2020 03:24 1,8 C 79 % 1006,0 hPa 0,0 l/m 10,6 km/h W-NW 294 0 min 0,0 UV-I 0 W/m -1,4 C -1,9 C 17,7 km/h
29.01.2020 03:21 1,7 C 79 % 1006,0 hPa 0,0 l/m 12,4 km/h NW 320 0 min 0,0 UV-I 0 W/m -1,5 C -3,3 C 20,9 km/h
29.01.2020 03:18 1,7 C 80 % 1006,0 hPa 0,0 l/m 10,5 km/h N-NW 338 0 min 0,0 UV-I 0 W/m -1,4 C -2,0 C 22,5 km/h
29.01.2020 03:15 1,6 C 81 % 1006,1 hPa 0,0 l/m 12,9 km/h NW 309 0 min 0,0 UV-I 0 W/m -1,3 C -3,8 C 20,9 km/h
29.01.2020 03:12 1,6 C 82 % 1006,2 hPa 0,0 l/m 8,9 km/h NW 325 0 min 0,0 UV-I 0 W/m -1,1 C -0,8 C 16,1 km/h
29.01.2020 03:09 1,6 C 83 % 1006,3 hPa 0,0 l/m 7,3 km/h N 355 0 min 0,0 UV-I 0 W/m -1,0 C 0,7 C 12,9 km/h
29.01.2020 03:06 1,6 C 84 % 1006,2 hPa 0,0 l/m 12,6 km/h W-NW 290 0 min 0,0 UV-I 0 W/m -0,8 C -3,6 C 20,9 km/h
29.01.2020 03:03 1,5 C 84 % 1006,2 hPa 0,0 l/m 9,7 km/h W-NW 298 0 min 0,0 UV-I 0 W/m -0,9 C -1,6 C 24,1 km/h
29.01.2020 03:00 1,4 C 85 % 1006,1 hPa 0,0 l/m 11,7 km/h W-NW 284 0 min 0,0 UV-I 0 W/m -0,8 C -3,2 C 20,9 km/h
29.01.2020 02:57 1,4 C 86 % 1006,1 hPa 0,0 l/m 15,2 km/h NW 307 0 min 0,0 UV-I 0 W/m -0,7 C -5,4 C 32,2 km/h
29.01.2020 02:54 1,4 C 86 % 1006,2 hPa 0,0 l/m 14,1 km/h N-NW 337 0 min 0,0 UV-I 0 W/m -0,7 C -4,8 C 30,6 km/h
29.01.2020 02:51 1,4 C 87 % 1006,2 hPa 0,0 l/m 15,0 km/h W-NW 284 0 min 0,0 UV-I 0 W/m -0,5 C -5,3 C 24,1 km/h
29.01.2020 02:48 1,4 C 87 % 1006,0 hPa 0,0 l/m 14,5 km/h N-NW 331 0 min 0,0 UV-I 0 W/m -0,5 C -5,0 C 25,7 km/h
29.01.2020 02:45 1,4 C 87 % 1005,9 hPa 0,0 l/m 11,1 km/h NW 324 0 min 0,0 UV-I 0 W/m -0,5 C -2,7 C 17,7 km/h
29.01.2020 02:42 1,4 C 87 % 1005,9 hPa 0,0 l/m 16,9 km/h NW 313 0 min 0,0 UV-I 0 W/m -0,5 C -6,3 C 27,4 km/h
29.01.2020 02:39 1,5 C 87 % 1005,9 hPa 0,0 l/m 15,5 km/h NW 312 0 min 0,0 UV-I 0 W/m -0,4 C -5,4 C 24,1 km/h
29.01.2020 02:36 1,5 C 88 % 1005,9 hPa 0,0 l/m 16,7 km/h NW 310 0 min 0,0 UV-I 0 W/m -0,3 C -6,1 C 29,0 km/h
29.01.2020 02:33 1,5 C 88 % 1005,8 hPa 0,0 l/m 15,0 km/h NW 311 0 min 0,0 UV-I 0 W/m -0,3 C -5,2 C 29,0 km/h
29.01.2020 02:30 1,5 C 88 % 1005,8 hPa 0,0 l/m 14,6 km/h N-NW 336 0 min 0,0 UV-I 0 W/m -0,3 C -4,9 C 24,1 km/h
29.01.2020 02:27 1,6 C 88 % 1005,6 hPa 0,0 l/m 16,2 km/h N-NO 19 0 min 0,0 UV-I 0 W/m -0,2 C -5,7 C 29,0 km/h
29.01.2020 02:24 1,6 C 88 % 1005,8 hPa 0,0 l/m 15,3 km/h NW 319 0 min 0,0 UV-I 0 W/m -0,2 C -5,2 C 30,6 km/h
29.01.2020 02:21 1,6 C 88 % 1005,7 hPa 0,0 l/m 15,9 km/h NW 323 0 min 0,0 UV-I 0 W/m -0,2 C -5,5 C 32,2 km/h
29.01.2020 02:18 1,6 C 88 % 1005,6 hPa 0,0 l/m 13,3 km/h W 263 0 min 0,0 UV-I 0 W/m -0,2 C -4,0 C 22,5 km/h
29.01.2020 02:15 1,6 C 88 % 1005,7 hPa 0,0 l/m 17,8 km/h W-NW 284 0 min 0,0 UV-I 0 W/m -0,2 C -6,5 C 32,2 km/h
29.01.2020 02:12 1,6 C 88 % 1005,7 hPa 0,0 l/m 11,1 km/h NW 313 0 min 0,0 UV-I 0 W/m -0,2 C -2,5 C 20,9 km/h
29.01.2020 02:09 1,7 C 88 % 1005,7 hPa 0,0 l/m 14,4 km/h NW 310 0 min 0,0 UV-I 0 W/m -0,1 C -4,6 C 27,4 km/h
29.01.2020 02:06 1,7 C 88 % 1005,6 hPa 0,0 l/m 11,6 km/h N-NW 329 0 min 0,0 UV-I 0 W/m -0,1 C -2,8 C 20,9 km/h
29.01.2020 02:03 1,7 C 87 % 1005,5 hPa 0,0 l/m 9,9 km/h N-NW 333 0 min 0,0 UV-I 0 W/m -0,2 C -1,5 C 20,9 km/h
29.01.2020 02:00 1,8 C 93 % 1005,6 hPa 0,0 l/m 13,0 km/h NW 305 0 min 0,0 UV-I 0 W/m 0,8 C -3,6 C 20,9 km/h
29.01.2020 01:57 1,8 C 87 % 1005,5 hPa 0,0 l/m 13,7 km/h N-NW 347 0 min 0,0 UV-I 0 W/m -0,1 C -4,0 C 25,7 km/h
_ Min-Zeit 06:03 00:30 14:15 - 08:24 - - - - - 05:39 02:15 08:27
Minimum _ -1,2 C 73 % 1002,0 hPa - 0,0 km/h - - - - - -3,2 C -6,5 C 0,0 km/h
_ Max-Zeit 19:06 08:18 08:39 15:24 23:48 - - 09:18 11:03 14:09 15:45 15:48 00:12
Maximum _ 4,7 C 98 % 1006,4 hPa 0,4 l/m 23,1 km/h
N
- - 3 min 0,9 UV-I 415 W/m 2,6 C 3,3 C 49,9 km/h
W
Durchschnitt _ 1,5 C 88 % 1004,6 hPa #2,8 l/m 6,1 km/h NW - #0 min. 0,0 UV-I 0 W/m -0,2 C -0,4 C 12,7 km/h
Schulla EDV